Flag for U.S.A. Weather past 2 weeks in San Francisco, California, U.S.A.

Now
78 °F

Sunny.


Feels Like: 78 °F
Forecast: 51 / 69 °F
Wind: 14 mph from Northwest

Location: San Francisco International Airport


UV Index: 5 (Moderate)

Visibility: 10 mi


Pressure: 30.09 "Hg

Humidity: 31%

Dew point: 45 °F

Location of San FranciscoLocation

Historic Weather in San Francisco

°F

San Francisco temperature yesterday

Maximum temperature yesterday: 63 °F (at 12:56 PM)
Minimum temperature yesterday: 52 °F (at 12:56 AM)
Average temperature yesterday: 57 °F

Past Weeks' High & Low Weather Summary

 TemperatureHumidityPressure
High81 °F (Apr 7, 4:56 PM)96% (Apr 10, 2:56 AM)30.24 "Hg (Apr 10, 2:56 AM)
Low50 °F (Apr 10, 2:56 AM)31% (Apr 20, 2:56 PM)29.80 "Hg (Apr 17, 5:56 AM)
Average59 °F75%30.01 "Hg
* Reported Apr 5 2:56 PM — Apr 20 2:56 PM, San Francisco, Weather by CustomWeather, © 2014

Note: Actual official high and low records may vary slightly from our data, if they occured in-between our weather recording intervals... More about our weather records

Advertising

Historic Weather Conditions — Data for Previous 24 hours

 ConditionsComfort  
Time TempWeatherWind HumidityBarometerVisibility
2:56 PM
Apr 20
78 °FSunny.14 mph31%30.09 "Hg10 mi
1:56 PM71 °FPassing clouds.7 mph68%30.10 "Hg10 mi
12:56 PM67 °FPassing clouds.5 mph66%30.12 "Hg10 mi
11:56 AM67 °FScattered clouds.6 mph63%30.14 "Hg10 mi
10:56 AM64 °FScattered clouds.5 mph65%30.14 "Hg10 mi
9:56 AM61 °FPartly sunny.No wind78%30.14 "Hg10 mi
8:56 AM59 °FScattered clouds.No wind84%30.14 "Hg10 mi
7:56 AM55 °FPassing clouds.No wind83%30.14 "Hg10 mi
6:56 AM52 °FPassing clouds.No wind86%30.13 "Hg10 mi
5:56 AM52 °FPassing clouds.No wind86%30.12 "Hg10 mi
4:56 AM51 °FClear.3 mph89%30.12 "Hg10 mi
3:56 AM52 °FClear.6 mph89%30.12 "Hg10 mi
2:56 AM53 °FClear.6 mph86%30.12 "Hg10 mi
1:56 AM53 °FPassing clouds.5 mph89%30.12 "Hg10 mi
12:56 AM54 °FPassing clouds.8 mph86%30.13 "Hg10 mi
11:56 PM
Apr 19
54 °FPassing clouds.9 mph86%30.13 "Hg10 mi
10:56 PM56 °FPassing clouds.10 mph81%30.13 "Hg10 mi
9:56 PM56 °FPassing clouds.16 mph84%30.13 "Hg10 mi
8:56 PM56 °FPassing clouds.20 mph87%30.12 "Hg10 mi
7:56 PM57 °FMostly cloudy.13 mph90%30.11 "Hg8 mi
6:56 PM57 °FPartly sunny.13 mph87%30.11 "Hg10 mi
5:56 PM59 °FBroken clouds.13 mph81%30.11 "Hg10 mi
4:56 PM63 °FScattered clouds.18 mph70%30.10 "Hg10 mi
Weather by CustomWeather, © 2014

See weather overview